{"data":{"norad_id":56387,"intl_designator":"2023-061P","name":"STARLINK-6178","alt_names":[],"object_type":"PAYLOAD","status":"ACTIVE","operator":null,"country":"US","launch_date":"2023-05-04","launch_site_code":"AFETR","launch_vehicle":null,"mission":null,"orbit_class":"UNKNOWN","rcs_meters":null,"size_class":null,"mass_kg":null,"dimensions":null,"purposes":["comms"],"wikipedia_slug":null,"has_3d_model":false,"image_url":null,"decayed_at":null,"tle_current":{"epoch":"2026-09-20T03:47:51.956736Z","epoch_age_seconds":141540,"freshness":"FRESH","line1":"1 56387U 23061P   26263.15824024  .00001260  00000+0  55294-4 0  9993","line2":"2 56387  43.0029 179.4268 0001446 284.9395  75.1297 15.27578877186497","mean_motion":15.27578877,"eccentricity":0.0001446,"inclination_deg":43.0029,"raan_deg":179.4268,"arg_perigee_deg":284.9395,"mean_anomaly_deg":75.1297,"bstar":5.5294e-5,"rev_number":18649,"period_min":94.266818013876,"perigee_km":482.06033071198,"apogee_km":484.04458670344,"semimajor_km":6861.1894587077,"source":"CELESTRAK","updated_at":"2026-09-21T09:00:33.432608Z"}}}